Tracking 29892 objects as of 21-Nov-2024
HD Live streaming from Space Station
objects crossing your sky now

COSMOS 1481 DEB

Track COSMOS 1481 DEB now!


NORAD ID: 14192
Int'l Code: 1983-070E
Perigee: 5,115.9 km
Apogee: 34,814.2 km
Inclination: 70.7 °
Period: 708.9 minutes
Semi major axis: 26336 km
RCS: 2.531 m2 (large)
Launch date: July 8, 1983
Source: Commonwealth of Independent States (former USSR) (CIS)
Launch site: PLESETSK MISSILE AND SPACE COMPLEX (PKMTR)

Note: This is SATELLITE DEBRIS
Your satellite tracking list
Your tracking list is empty




NASA's NSSDC Master Catalog

Two Line Element Set (TLE):
1 14192U 83070E   24319.06780925  .00000705  00000-0  00000-0 0  9993
2 14192  70.7456 265.0786 5638332 258.4124 346.9825  2.03131004227831
Source of the keplerian elements: AFSPC